Content
SEND FEEDBACK

Daily
Averages
Monthly
Summary
United States of America

FAYETTEVILLE, TENNESSEE


Home > North America > United States > Tennessee
Elevation: 213 meters     Latitude: 35 10N     Longitude: 086 33W

WEATHER
 
SELECT A DAY
Number of Records: 297,722;   Date Range: 4/22/02 - 7/20/14
 
SHARE

PRINT THIS DATA

[ ← Previous Day ]
WEATHER ALMANAC - 20 JANUARY, 2014
[ Next Day → ]
[ °F ]   °C
Weather ElementAverageHighLow
Temperature7.2 °C16 °C (1:55 pm)-2 °C (4:35 am)
Dewpoint-5.6 °C-2 °C (10:55 pm)-9 °C (3:35 pm)
Humidity44.9 %80 % (4:15 am)17 % (3:35 pm)
Barometer1014.2 hPa1016.9 hPa (3:35 am)1010.5 hPa (11:35 pm)
Wind Speed1.3 km/h16.7 km/h (12:35 am)
Weather ElementAverage
Visibility16.1 km
Wind DirectionNNE (19.7 °)

Weather ElementTotal
Precipitation---
Heating Degree Days11.3 (Base 18.3)
Averaged from 70 records on 20 January, 2014
WEATHER CONDITIONS BREAKOUT
WIND DIRECTION BREAKOUT
WEATHER BY HOUR - 20 JANUARY, 2014
[ °F ]   °C
Local TimeTemperatureDewpointHumidityBarometerVisibilityWind DirectionWind SpeedGust SpeedPrecipitationEventsConditions
12:35 AM2 °C-5 °C60 %1016.6 hPa16.1 kmSSW (200°)16.7 km/hClear
12:55 AM2 °C-5 °C60 %1016.3 hPa16.1 kmCalmClear
1:15 AM2 °C-5 °C60 %1016.6 hPa16.1 kmCalmClear
1:35 AM2 °C-5 °C60 %1016.3 hPa16.1 kmCalmClear
1:55 AM3 °C-5 °C56 %1016.3 hPa16.1 kmCalmClear
2:15 AM2 °C-5 °C60 %1015.9 hPa16.1 kmCalmClear
2:35 AM1 °C-5 °C65 %1016.3 hPa16.1 kmCalmClear
2:55 AM2 °C-6 °C56 %1016.6 hPa16.1 kmCalmClear
3:15 AM1 °C-5 °C65 %1016.6 hPa16.1 kmCalmClear
3:35 AM-1 °C-5 °C75 %1016.9 hPa16.1 kmCalmClear
3:55 AM-1 °C-5 °C75 %1016.6 hPa16.1 kmCalmClear
4:15 AM-1 °C-4 °C80 %1016.6 hPa16.1 kmCalmClear
4:35 AM-2 °C-6 °C74 %1016.6 hPa16.1 kmCalmClear
4:55 AM-1 °C-5 °C75 %1016.3 hPa16.1 kmCalmClear
5:15 AM-1 °C-4 °C80 %1015.9 hPa16.1 kmCalmClear
5:35 AM1 °C-5 °C65 %1015.6 hPa16.1 kmCalmClear
5:55 AM1 °C-5 °C65 %1015.9 hPa16.1 kmCalmClear
6:15 AM2 °C-5 °C60 %1015.6 hPa16.1 kmCalmClear
6:35 AM1 °C-5 °C65 %1015.6 hPa16.1 kmCalmClear
6:55 AM0 °C-5 °C69 %1015.6 hPa16.1 kmCalmClear
7:15 AM1 °C-5 °C65 %1015.6 hPa16.1 kmCalmClear
7:35 AM3 °C-5 °C56 %1015.9 hPa16.1 kmCalmClear
7:55 AM4 °C-5 °C52 %1016.3 hPa16.1 kmCalmClear
8:15 AM5 °C-5 °C49 %1016.3 hPa16.1 kmCalmClear
8:35 AM6 °C-5 °C46 %1016.3 hPa16.1 kmCalmClear
8:55 AM7 °C-6 °C39 %1016.6 hPa16.1 kmCalmClear
9:15 AM8 °C-6 °C37 %1016.6 hPa16.1 kmCalmClear
9:35 AM8 °C-6 °C37 %1016.9 hPa16.1 kmCalmClear
9:55 AM9 °C-6 °C34 %1016.9 hPa16.1 kmCalmClear
10:15 AM10 °C-7 °C30 %1016.9 hPa16.1 kmCalmClear
10:35 AM11 °C-7 °C28 %1016.6 hPa16.1 kmCalmClear
10:55 AM11 °C-7 °C28 %1016.3 hPa16.1 kmCalmClear
11:15 AM12 °C-7 °C26 %1015.9 hPa16.1 kmCalmClear
11:35 AM12 °C-7 °C26 %1015.2 hPa16.1 kmCalmClear
11:55 AM13 °C-7 °C25 %1014.9 hPa16.1 kmCalmClear
12:15 PM13 °C-7 °C25 %1014.2 hPa16.1 kmCalmClear
12:35 PM13 °C-7 °C25 %1013.9 hPa16.1 kmCalmClear
12:55 PM14 °C-7 °C23 %1013.9 hPa16.1 kmWSW (250°)14.8 km/hClear
1:15 PM15 °C-7 °C22 %1013.2 hPa16.1 kmCalmClear
1:35 PM15 °C-7 °C22 %1013.2 hPa16.1 kmSW (230°)11.1 km/hClear
1:55 PM16 °C-8 °C19 %1012.9 hPa16.1 kmSW (230°)16.7 km/hClear
2:15 PM16 °C-8 °C19 %1012.5 hPa16.1 kmSW (230°)14.8 km/hClear
2:35 PM16 °C-8 °C19 %1012.2 hPa16.1 kmWSW (240°)14.8 km/hClear
2:55 PM16 °C-8 °C19 %1011.9 hPa16.1 kmCalmClear
3:15 PM16 °C-8 °C19 %1011.9 hPa16.1 kmCalmClear
3:35 PM16 °C-9 °C17 %1011.9 hPa16.1 kmCalmClear
3:55 PM16 °C-8 °C19 %1011.9 hPa16.1 kmCalmClear
4:15 PM16 °C-8 °C19 %1011.9 hPa16.1 kmCalmClear
4:35 PM15 °C-7 °C22 %1011.9 hPa16.1 kmCalmClear
4:55 PM13 °C-7 °C25 %1011.9 hPa16.1 kmCalmClear
5:15 PM11 °C-6 °C30 %1011.9 hPa16.1 kmCalmClear
5:35 PM11 °C-6 °C30 %1011.9 hPa16.1 kmCalmClear
5:55 PM10 °C-5 °C35 %1012.2 hPa16.1 kmCalmClear
6:15 PM10 °C-5 °C35 %1012.2 hPa16.1 kmCalmClear
6:35 PM9 °C-5 °C37 %1012.2 hPa16.1 kmCalmClear
6:55 PM9 °C-4 °C40 %1012.2 hPa16.1 kmCalmClear
7:15 PM8 °C-5 °C40 %1012.2 hPa16.1 kmCalmClear
7:35 PM7 °C-4 °C46 %1012.2 hPa16.1 kmCalmClear
7:55 PM8 °C-4 °C43 %1012.2 hPa16.1 kmCalmClear
8:35 PM7 °C-4 °C46 %1011.9 hPa16.1 kmCalmClear
8:55 PM7 °C-5 °C43 %1011.9 hPa16.1 kmCalmClear
9:15 PM8 °C-5 °C40 %1011.9 hPa16.1 kmCalmClear
9:35 PM8 °C-5 °C40 %1011.5 hPa16.1 kmCalmClear
9:55 PM7 °C-5 °C43 %1011.9 hPa16.1 kmCalmClear
10:15 PM7 °C-5 °C43 %1011.9 hPa16.1 kmCalmClear
10:35 PM5 °C-3 °C57 %1011.5 hPa16.1 kmCalmClear
10:55 PM3 °C-2 °C70 %1011.5 hPa16.1 kmCalmClear
11:15 PM2 °C-2 °C75 %1011.2 hPa16.1 kmCalmScattered Clouds
11:35 PM2 °C-2 °C75 %1010.5 hPa16.1 kmCalmMostly Cloudy
11:55 PM5 °C-2 °C61 %1010.5 hPa16.1 kmCalmMostly Cloudy
Hourly data recorded from KMDQ, located 0 kilometers away from Fayetteville, Tennessee







STORIES FROM OUR PARTNERS